SL-14 R/B, 19211

Orbit data source: Space-Track

SL-14 R/B, 19211 is space debris in LEO originally from a launch on Tue, 14 Jun 1988 UTC launched from the Plesetsk Missile And Space Complex (PKMTR). Debris objects in space refer to the collection of defunct objects orbiting the Earth. Examples of debris include non-operational satellites, rocket bodies, and fragments generated from explosions, collisions, or faulty payload assembly.

Loading next visibility...
Identifier
19211, 1988-050B
Orbit
LEO
Country
Flag of CISCIS
Related business
Manufacturer
Yuzhnoe
Mission
Spacecraft
Bus & Motor
S5M, Unknown motor
Mass
1,600 kg wet, 1,600 kg dry
Launch date (UTC)
1988-06-14 (37 years ago)
Launch vehicle
Unknown
Launch site
Plesetsk Missile And Space Complex (PKMTR)
Object type
Payload
Rocket body
Debris
Shape & HBR
Cyl, 1.4 m
Radar Cross Section
7.351 m², Large (>1 m²)

Expand to show TLE details & history
Last TLE update: 15 hours ago

TLE from 15 hours ago
0 SL-14 R/B
1 19211U 88050B   25293.55063861  .00000960  00000-0  10878-3 0  9992
2 19211  82.5266 229.9420 0021840 144.5358 215.7316 14.85194661997508
Epoch: 2025-10-20T13:12Z
TLE epoch observation values (Epoch: 2025-10-20T13:12:55.175Z)
Latitude
0.00001°
Longitude
2.46077°
Altitude
628.424 km
Speed
7.538 km/s
True Right ascension
15h 19m 46s
True Declination
0° 00' 00"
Sunlit
Object was in daylight at epoch
Visualization orbit readout
Latitude
Unknown
Longitude
Unknown
Altitude
Unknown
Speed
Unknown
Apparent Right ascension
Unknown
Apparent Declination
Unknown
Sunlit
N/A
Visualization observer readout
Local Sidereal Time
22:50:17
Azimuth
Unknown
Elevation
Unknown
Doppler factor
Unknown
Orbital elements
Apogee altitude
625.252 km
Perigee altitude
594.728 km
Semi-major axis
6,988.127 km
Eccentricity
0.00218
Inclination
82.5266°
RAAN
229.942°
Arg. of periapsis
144.5358°
True anomaly
215.58577°
Mean anomaly
215.7316°
Eccentric anomaly
215.65865°
Mean motion
3.71537 °/min
Orbital period
96.89 mins
BSTAR
0.00010878
Loading maneuver chart data...
Computing Atmospheric mass density...
Loading historical data...
Loading historical data...
Loading historical data...
Loading historical data...
Loading historical data...
Loading historical data...
Loading historical data...
Other satellites on launch #50 in the year 1988 (1988-06-14 UTC)

Documentation

Showing up to 5 results
|